Theta_e
324 324 324 324 323 324 324 325 324 325 326 329 331 331 331 331 331 331 332 332 333 334 335 336 336 336 337 338 338 339 339 339 337 335 333 333 334 334 335 334 334 333 333 333 333 333 332 332 331 330 330 329 329 329 330 330 329 329 329 328 327 327 327 326 326 326 325 325 325
324 324 322 321 321 322 324 325 325 325 328 331 331 331 330 330 330 330 331 332 333 334 335 335 335 336 337 337 337 338 338 338 338 336 335 335 335 335 335 335 334 334 333 333 332 332 332 332 331 330 329 329 329 329 330 329 329 329 329 328 328 328 327 327 326 326 326 326 325
323 324 323 324 324 324 324 325 326 328 330 333 332 331 331 331 330 330 331 331 332 333 334 334 335 335 336 337 337 337 337 338 338 337 336 336 336 336 335 335 334 333 333 332 333 332 332 332 331 329 328 328 328 328 328 329 329 329 329 329 328 328 327 327 327 327 327 326 325
323 324 324 324 324 324 324 325 326 329 331 331 332 331 330 331 331 331 331 331 332 332 333 333 334 335 336 337 337 336 336 335 336 337 337 336 335 335 335 335 335 334 334 334 333 332 332 332 331 330 329 328 327 327 327 328 328 329 329 329 329 328 327 327 328 327 327 326 326
323 323 324 324 324 324 324 325 326 329 332 331 331 331 330 330 330 330 330 330 331 331 332 333 334 334 335 336 337 336 336 335 332 334 336 336 335 335 335 335 334 334 334 334 333 333 332 332 332 331 330 330 328 327 327 327 328 328 328 329 329 328 328 328 328 328 327 327 326
323 323 324 324 325 325 325 325 326 329 331 331 330 330 330 330 330 330 330 330 330 331 331 331 331 332 333 336 336 336 336 335 334 335 337 336 336 336 335 334 334 334 334 334 333 333 333 332 331 332 331 330 330 329 328 328 327 327 327 327 328 328 328 328 328 328 327 327 327
323 323 324 325 325 325 325 325 326 329 331 331 330 330 330 330 330 330 330 330 331 331 331 329 330 331 333 335 336 335 335 335 335 336 336 336 335 335 335 335 334 334 334 334 333 333 333 332 332 330 328 327 329 329 329 328 327 326 326 326 327 327 327 327 327 327 327 326 326
323 323 323 324 325 325 325 325 326 329 331 331 330 329 330 330 330 330 330 330 330 330 330 330 332 333 333 334 334 335 335 335 335 335 335 335 335 335 335 335 335 335 335 334 333 333 332 332 331 331 330 329 329 329 330 330 328 327 326 325 326 326 327 326 326 326 326 325 326
323 323 323 324 325 325 326 326 327 329 331 330 330 330 330 330 330 330 330 330 329 330 330 331 332 332 333 333 333 334 334 334 334 335 335 334 334 334 335 335 335 334 334 334 334 333 333 332 331 330 330 329 329 329 329 330 329 328 327 326 325 325 326 326 326 327 325 325 324
322 323 323 324 324 325 326 326 327 329 330 330 330 330 329 326 329 329 330 330 329 330 331 332 332 332 332 332 333 333 334 334 334 334 334 333 333 333 334 334 335 334 334 334 334 334 333 332 331 330 330 329 329 329 329 329 329 328 328 326 326 325 325 326 326 326 325 323 323
323 323 324 324 324 325 325 325 327 329 330 331 330 330 329 327 329 330 330 330 330 331 331 331 332 332 332 332 332 333 333 333 333 333 333 333 332 333 333 333 334 334 333 333 334 334 333 332 331 330 330 330 329 329 329 329 329 328 328 327 326 326 326 325 325 325 324 323 323
324 324 324 324 325 326 325 325 328 329 330 330 330 330 330 330 331 330 330 330 330 330 331 331 332 332 332 332 332 332 332 333 333 333 333 333 333 333 333 333 333 333 333 333 334 334 333 332 331 330 330 330 330 329 329 329 328 328 327 327 327 327 326 325 325 325 324 323 324
324 324 325 325 326 326 326 326 329 330 330 330 330 330 331 331 331 331 330 331 330 331 331 331 332 332 333 333 332 333 333 333 333 332 332 333 333 333 333 333 333 333 333 333 334 333 332 332 331 331 330 330 330 330 329 329 329 328 327 327 327 327 326 326 325 324 324 324 324
325 325 325 325 326 326 326 327 329 330 330 330 330 330 331 331 331 330 331 331 331 331 332 332 331 332 332 333 333 333 334 334 333 333 333 333 334 334 333 333 333 333 333 333 333 332 332 331 331 331 331 330 331 330 330 330 329 329 328 327 327 326 326 326 326 325 325 324 323
325 325 325 325 326 326 327 328 330 330 329 330 330 330 331 332 331 330 331 332 332 332 333 332 332 332 332 334 333 334 334 334 334 334 334 333 334 334 334 334 334 333 333 333 332 332 332 331 331 331 331 331 331 331 331 330 329 329 328 328 327 327 327 326 326 326 325 324 323
325 325 325 326 326 326 327 329 329 329 329 329 330 330 331 331 331 331 332 333 333 333 333 333 333 333 333 333 334 334 334 334 334 334 334 334 334 334 334 334 334 334 334 333 333 332 332 331 331 331 331 331 331 331 331 330 330 330 329 328 328 328 327 326 326 326 325 324 323
324 325 325 325 326 327 328 330 329 329 329 329 330 331 331 332 332 332 331 332 334 334 334 334 334 334 333 332 333 334 334 334 334 334 334 334 334 334 334 334 334 334 334 333 333 332 332 332 331 331 331 330 331 331 331 330 330 329 329 329 328 328 327 326 326 326 325 324 322
325 325 325 325 326 327 329 329 329 329 330 330 330 332 332 332 333 332 332 332 334 335 334 334 334 334 334 333 333 333 333 334 334 334 335 335 334 334 334 334 333 334 334 334 333 332 332 332 332 331 331 331 330 330 330 330 330 329 329 329 328 328 327 326 326 326 325 324 323
325 325 325 326 327 328 328 328 329 329 330 330 331 332 333 333 333 333 333 334 334 334 334 334 334 333 333 333 334 332 331 333 334 334 334 334 334 334 333 333 333 333 334 333 333 333 332 332 331 331 331 331 330 330 330 330 330 329 329 328 328 327 327 327 327 326 325 324 323
326 326 326 327 328 328 328 328 329 330 330 331 331 332 332 332 333 332 332 333 333 333 334 333 333 332 333 333 333 332 331 332 333 333 333 333 333 333 333 333 332 333 333 333 332 332 332 332 331 331 330 330 330 330 330 329 329 329 328 328 327 327 327 327 327 326 326 325 324
326 327 328 328 328 328 328 329 330 330 331 331 331 331 332 331 332 332 332 332 332 332 332 332 331 331 331 332 332 332 332 331 332 332 332 332 332 332 332 332 332 332 332 332 332 332 332 331 331 331 330 329 329 329 329 328 328 328 328 328 327 327 326 326 326 326 326 325 325
326 327 328 329 328 328 328 329 330 330 330 330 331 330 331 331 331 331 331 331 331 331 331 331 331 331 330 331 331 331 331 330 331 332 331 331 331 331 331 331 331 331 331 331 331 331 331 331 331 331 330 329 329 328 328 327 327 328 327 327 327 327 326 326 326 326 325 325 325
325 326 327 329 329 328 327 329 329 329 329 329 329 330 330 330 330 330 330 330 330 330 331 330 330 331 331 331 331 331 330 330 331 331 331 332 331 331 331 331 331 331 330 330 331 331 331 331 330 330 330 329 328 328 327 327 327 327 327 326 326 326 326 326 326 326 325 325 325
325 326 326 327 328 328 328 329 329 328 329 329 329 329 329 329 330 330 330 330 329 330 330 330 330 331 331 331 331 330 330 329 330 330 330 331 331 331 331 331 331 331 331 330 327 325 325 327 330 330 330 329 328 327 327 327 326 326 326 326 326 325 325 325 325 325 325 325 324
325 325 325 326 326 327 328 328 328 328 329 329 329 329 329 329 329 329 329 330 330 330 330 331 331 332 332 332 332 332 332 331 331 331 331 332 332 332 332 332 331 330 327 321 306 301 303 308 317 325 329 329 327 326 326 325 325 325 325 325 324 324 324 324 324 324 324 324 325
326 325 325 325 326 327 328 328 328 328 329 329 329 329 329 329 329 329 330 330 330 330 331 330 329 327 326 328 327 325 324 322 321 321 320 319 318 318 318 318 319 317 311 301 295 293 294 296 299 306 316 326 326 325 325 324 324 324 324 323 322 322 322 322 322 323 323 323 322
324 326 326 326 326 327 328 328 328 329 328 329 329 329 328 329 329 329 329 330 329 327 326 323 321 317 315 318 316 315 314 313 312 312 311 310 310 310 310 310 310 307 303 296 293 293 294 295 295 297 304 319 323 325 325 324 324 323 323 323 324 323 323 323 323 322 320 314 310
322 324 325 327 326 326 328 328 328 327 328 328 328 329 329 329 329 329 328 326 324 321 319 317 316 315 314 313 312 311 310 310 309 308 307 306 305 304 304 304 303 301 297 293 293 294 295 296 295 296 299 307 317 317 314 314 314 315 315 316 316 317 318 319 316 311 307 303 302
321 322 323 325 326 326 326 326 327 327 328 328 329 329 329 328 326 324 322 320 318 317 316 314 313 312 311 309 308 307 307 306 305 305 303 302 302 300 300 299 299 297 294 292 293 294 295 296 296 297 298 300 306 309 308 306 305 304 304 304 305 305 306 307 305 304 302 302 300
320 321 322 323 324 325 325 325 326 326 326 326 325 324 323 320 318 317 315 314 313 312 312 311 310 308 307 307 306 305 304 304 303 302 301 300 299 298 297 296 297 296 294 293 294 295 296 296 296 296 297 297 301 303 304 303 302 302 301 301 301 301 301 301 301 301 300 299 298
320 320 321 322 322 322 321 321 321 321 319 318 317 316 315 313 312 312 311 310 309 308 307 307 306 305 305 304 303 302 302 301 301 300 299 298 296 296 295 295 295 294 294 293 294 295 295 296 295 295 295 296 299 300 301 301 300 299 299 299 299 299 299 299 299 298 298 297 297
321 321 320 321 319 318 317 317 316 316 315 314 313 312 311 310 310 309 308 307 307 306 305 304 303 303 302 301 301 300 300 299 299 298 298 297 296 295 295 294 294 293 292 292 293 294 294 295 294 294 294 294 296 297 298 298 297 297 297 297 297 297 298 298 298 297 297 297 296
320 319 318 317 315 315 314 314 313 313 312 311 310 309 309 308 308 307 307 306 305 304 304 303 302 301 300 300 299 299 298 298 297 296 296 295 295 295 294 293 293 292 291 292 292 293 293 293 293 293 293 293 294 295 296 295 295 294 294 294 294 295 296 296 296 296 297 297 296
317 316 315 314 313 312 312 311 311 310 309 309 308 307 307 306 306 305 304 304 303 303 302 302 301 300 300 299 299 298 297 296 296 296 295 295 294 294 293 292 292 291 291 291 291 292 292 292 292 292 292 292 293 293 293 293 292 292 291 291 292 292 292 293 293 294 294 295 295
314 313 312 312 311 310 310 309 309 308 307 306 306 305 305 305 304 303 303 302 301 301 301 300 300 300 299 299 298 297 297 296 296 296 295 294 294 293 292 292 291 291 290 291 291 291 292 292 291 291 291 291 292 292 291 290 290 289 289 289 289 290 290 290 291 291 291 292 292
313 311 310 310 309 308 308 307 307 306 305 305 304 303 303 303 303 302 301 300 300 300 300 300 299 299 298 298 297 297 296 296 296 295 295 294 293 292 292 291 291 290 290 290 291 291 291 291 291 291 291 291 291 290 290 289 288 288 288 287 287 288 288 288 289 289 290 290 290
311 310 309 308 308 307 307 306 305 305 304 303 303 302 302 302 302 301 301 300 299 299 298 298 298 297 296 296 296 296 296 295 295 294 294 293 293 292 291 291 291 290 289 290 290 290 291 291 291 291 291 290 290 289 289 288 287 287 286 286 286 286 286 287 287 287 288 288 288
310 309 308 307 306 305 305 304 304 303 302 302 301 301 301 300 300 300 299 298 298 297 296 296 296 295 295 295 294 294 294 294 294 293 293 292 292 292 291 291 291 290 290 290 290 290 290 290 290 290 290 290 289 288 288 287 286 286 285 285 285 285 285 285 286 286 286 287 287
308 307 306 305 305 304 303 303 302 302 301 301 300 300 300 299 299 299 298 297 297 296 295 294 294 294 293 293 292 292 292 292 292 292 291 291 291 291 291 290 290 290 290 290 290 290 290 290 290 290 289 289 288 288 287 286 286 285 285 284 284 284 284 284 285 285 285 286 287
306 305 305 304 303 302 302 301 301 300 300 300 299 299 298 298 298 297 297 296 295 295 294 293 293 292 292 291 290 290 290 290 290 290 290 290 290 290 290 290 290 290 289 290 290 290 290 290 290 290 289 289 288 288 287 286 285 284 284 284 283 283 283 283 284 284 284 284 285
305 304 303 303 302 301 301 300 300 299 299 299 298 298 297 297 296 296 295 295 294 293 292 291 291 290 290 289 288 288 287 287 287 288 288 288 288 289 289 289 289 289 289 290 290 290 290 290 290 290 289 288 288 287 287 286 285 284 283 283 283 283 282 282 283 283 283 283 284
Wind_Speed
14 14 12 13 13 12 9 8 10 13 15 15 15 13 12 11 12 11 11 11 11 11 10 11 12 13 15 18 18 17 16 16 16 16 16 16 15 15 14 14 13 12 12 11 10 9 8 8 8 7 6 6 7 7 8 9 10 10 11 10 9 9 9 10 10 10 10 9 7
16 15 14 13 13 11 9 8 10 12 14 14 14 13 11 11 11 11 11 11 11 10 10 10 11 13 16 18 18 17 16 15 15 15 15 16 15 15 14 13 13 13 12 11 10 8 7 7 6 6 5 5 6 6 8 9 10 10 11 12 10 9 9 9 9 10 10 9 7
15 15 15 14 14 12 10 9 12 15 16 16 13 11 11 11 11 11 11 11 11 11 10 10 11 13 16 17 16 15 15 14 14 14 14 15 15 15 14 13 13 13 12 11 10 9 7 7 6 5 5 5 5 6 6 8 8 9 10 12 9 8 7 8 8 9 8 7 7
15 15 15 16 17 16 14 13 15 17 17 14 12 11 11 11 10 10 10 11 11 11 11 11 12 13 14 16 16 16 15 14 14 13 13 13 15 15 14 13 14 13 12 11 11 10 8 7 5 4 4 5 6 6 6 6 6 7 8 9 8 7 7 7 7 7 6 6 7
15 15 15 15 18 17 16 17 19 18 15 11 11 11 11 10 9 9 10 10 11 11 12 13 13 13 14 15 17 18 17 16 14 12 12 13 14 15 15 14 14 13 12 11 11 10 9 8 5 4 4 5 5 5 5 5 6 6 6 6 6 6 6 6 6 6 6 6 6
15 15 15 15 17 17 16 18 21 18 12 10 11 12 12 10 10 10 11 11 12 13 14 14 13 14 15 16 18 18 18 17 14 12 12 12 13 14 15 14 13 12 11 11 11 11 10 8 5 4 4 4 4 4 5 6 5 5 5 5 5 5 5 5 5 5 6 6 7
15 16 16 16 18 17 17 17 20 17 12 10 14 15 14 12 12 13 13 12 12 13 13 12 13 14 15 17 17 17 17 16 14 13 12 11 12 13 13 14 13 13 12 11 11 11 9 8 6 5 4 4 4 4 5 5 5 5 4 4 4 4 4 5 4 4 5 8 9
15 16 16 17 18 19 20 19 21 17 12 11 14 16 17 15 15 15 14 13 12 12 12 12 15 16 17 17 17 17 16 16 15 14 12 11 11 12 12 13 13 13 12 12 11 11 10 7 6 5 5 4 4 4 5 5 5 5 5 5 4 3 3 3 3 4 5 7 8
14 15 16 16 17 18 20 20 24 20 14 13 16 17 17 17 16 16 15 12 12 13 13 13 17 18 19 19 18 17 17 16 16 14 13 12 11 11 11 11 12 12 11 11 11 11 10 7 6 5 5 4 4 4 5 6 5 5 5 5 4 3 3 3 3 3 4 5 6
14 15 15 16 17 17 17 20 25 22 17 15 17 18 17 16 16 15 14 11 12 12 13 15 17 18 19 19 18 18 17 16 16 15 14 12 11 11 11 10 11 11 10 10 10 11 10 8 7 6 6 5 6 6 6 6 6 6 5 4 4 4 4 4 4 4 4 4 5
15 15 15 15 18 16 14 20 23 21 17 16 18 17 16 16 16 14 13 11 12 13 14 15 17 17 17 17 17 17 16 15 15 15 14 13 12 11 10 10 10 10 10 10 9 9 9 7 7 7 7 7 7 6 6 6 6 6 6 5 5 5 5 5 5 5 5 5 6
14 14 14 15 18 17 16 20 21 19 16 16 17 17 16 15 15 14 13 12 13 14 14 15 16 15 15 14 15 15 15 14 14 14 13 13 12 11 11 10 10 10 10 10 9 8 7 8 8 9 9 8 6 6 6 7 7 7 7 7 6 6 6 6 6 6 5 5 6
12 12 13 15 18 18 19 21 20 17 15 16 16 15 15 14 14 14 14 14 14 13 12 13 14 13 13 12 13 14 14 13 13 13 13 12 12 11 11 10 10 10 10 9 8 7 7 8 9 10 10 9 7 6 7 8 8 8 9 9 8 8 8 8 7 7 6 6 7
12 12 13 15 18 19 20 23 19 16 15 16 15 15 14 14 13 13 14 14 13 12 11 12 11 11 11 11 12 13 13 13 13 13 13 12 12 12 12 11 11 11 10 9 9 8 8 9 10 10 10 10 9 8 8 8 9 9 10 10 11 10 10 9 8 8 7 8 8
12 13 15 17 18 19 21 24 18 15 15 16 15 14 13 13 13 13 13 13 13 12 11 11 10 10 10 11 12 13 13 13 13 13 13 13 13 13 12 11 12 11 10 9 9 9 9 10 10 10 10 10 10 10 9 9 10 10 11 11 12 12 11 10 9 9 9 9 9
14 15 17 18 19 21 23 21 15 14 15 15 15 14 13 12 12 12 13 13 12 11 11 12 11 10 10 11 12 12 12 12 13 13 13 13 13 13 12 12 12 11 11 10 10 10 10 11 11 11 11 11 11 11 11 11 11 11 11 11 12 12 12 11 10 10 10 10 10
15 17 19 19 21 24 23 18 15 15 15 16 15 14 13 12 12 12 12 13 12 11 12 13 11 11 10 10 10 11 11 11 11 12 12 12 12 12 12 12 12 11 11 11 11 11 11 11 11 12 12 12 12 12 12 12 11 11 11 12 12 12 11 11 11 10 11 11 11
16 19 21 22 24 24 22 19 17 17 17 17 16 15 13 13 12 12 12 13 12 13 13 13 12 11 11 11 10 9 9 10 10 10 10 10 11 11 10 10 11 11 11 11 11 11 11 12 11 11 11 12 12 12 12 12 11 11 11 12 12 12 12 11 11 11 10 11 11
16 19 21 22 22 21 20 19 19 19 19 18 16 15 14 14 14 14 13 13 13 14 14 13 12 11 11 11 10 9 8 9 9 9 9 9 9 8 8 8 9 9 10 10 10 10 10 10 10 11 11 11 12 12 12 12 12 11 12 12 12 12 12 12 11 11 11 11 11
13 15 17 17 16 16 17 19 19 19 18 17 16 16 15 15 15 15 14 14 14 13 13 13 12 12 11 11 10 9 8 7 8 8 8 7 7 7 7 7 7 7 8 8 8 8 8 9 9 10 10 11 11 12 12 12 12 12 12 11 11 12 12 12 12 12 12 12 12
9 10 10 10 11 14 16 18 18 18 18 17 17 16 16 15 15 15 15 14 14 13 12 12 12 12 11 11 11 9 8 6 7 7 7 7 6 6 6 6 6 6 6 6 6 7 7 8 8 8 9 9 10 11 11 11 11 11 11 10 11 11 12 12 13 13 13 13 13
6 6 6 6 9 13 15 16 17 17 17 16 16 16 15 15 15 15 15 14 13 12 12 12 12 11 11 11 10 9 8 6 7 7 6 6 6 5 5 5 5 5 6 6 6 6 7 7 7 8 8 8 9 10 10 9 10 10 11 11 11 12 12 13 13 13 14 14 14
6 6 6 5 8 11 15 16 16 17 16 15 15 15 14 14 14 14 14 14 12 12 11 10 10 10 10 10 10 9 9 7 7 7 6 6 6 5 5 5 5 6 6 6 7 7 7 8 8 8 8 8 8 9 9 9 9 10 11 12 12 13 13 13 13 13 14 14 14
7 7 6 6 9 12 15 15 16 16 16 15 15 14 14 14 14 14 13 13 13 12 11 9 9 10 10 10 10 10 9 9 8 8 7 7 7 7 6 6 6 6 5 4 3 3 4 6 7 8 8 8 7 7 7 8 8 9 9 10 11 11 11 11 11 12 12 12 12
9 8 8 9 11 12 13 14 16 16 16 16 15 15 14 14 14 13 12 12 12 12 11 10 10 10 10 9 9 8 8 7 7 6 5 4 3 2 2 2 1 0 1 4 5 4 3 2 4 5 6 6 6 7 7 8 8 9 8 8 8 7 7 8 9 9 9 10 10
8 9 10 13 13 11 10 13 15 16 16 16 16 15 14 14 13 13 13 12 12 11 11 10 9 8 8 9 9 9 9 9 9 9 9 9 9 9 8 7 7 7 7 8 8 6 4 2 2 3 4 5 6 7 8 8 9 9 10 9 9 9 9 8 9 9 9 8 7
6 7 10 13 15 10 7 11 13 15 17 16 16 15 15 14 13 13 13 12 12 12 12 12 11 11 11 12 13 14 13 12 13 13 13 13 12 11 10 9 8 7 6 7 7 5 3 1 1 2 2 4 6 7 7 6 6 6 7 8 9 10 11 11 12 10 6 1 2
6 7 9 12 13 10 7 10 12 13 15 16 16 15 15 15 14 13 13 13 13 13 12 12 11 10 10 11 13 14 14 13 12 12 13 13 13 12 11 10 9 8 8 9 5 3 1 2 3 3 3 1 0 1 3 4 4 4 3 3 3 4 4 4 2 2 5 7 7
8 11 12 12 10 10 10 10 11 11 12 13 14 14 14 14 14 14 14 14 14 13 11 10 9 9 10 11 12 13 14 14 12 12 12 14 14 13 12 11 10 10 11 12 7 7 8 9 10 11 11 10 7 6 6 6 7 7 7 7 7 7 6 6 6 6 7 8 8
10 12 14 14 12 11 11 11 11 11 12 13 15 15 16 16 16 16 16 15 14 13 11 10 11 12 13 13 13 13 13 13 12 13 14 15 15 14 14 13 12 12 14 15 13 14 15 15 16 16 16 13 10 8 8 8 8 8 7 7 8 9 9 9 8 8 7 7 8
12 12 13 14 12 11 11 12 13 15 16 16 17 18 18 17 17 16 16 15 14 14 14 15 16 16 16 14 14 14 14 13 13 14 14 15 15 15 15 15 15 14 15 17 17 17 18 19 19 18 17 15 12 10 9 9 9 9 9 9 10 10 10 9 9 9 9 9 9
14 11 9 9 9 11 13 16 17 17 18 19 19 18 18 17 17 16 15 15 15 16 16 17 18 17 17 16 16 16 16 15 15 15 15 15 16 16 16 16 15 15 15 17 17 18 19 20 20 19 18 17 14 12 12 11 11 11 11 12 12 12 11 9 9 10 10 10 9
14 11 8 9 11 13 15 16 17 18 18 18 18 18 17 17 16 15 15 14 15 16 17 17 17 17 17 17 17 17 17 16 16 16 16 16 16 16 16 15 13 13 14 16 17 18 19 20 20 20 20 18 15 14 13 12 11 11 11 12 13 14 14 13 12 11 11 10 9
16 14 12 12 13 14 15 16 17 18 18 18 18 17 17 16 16 15 15 14 14 15 16 17 17 17 16 16 17 16 16 15 15 16 16 16 17 17 15 13 10 12 14 16 16 17 18 19 20 21 20 19 15 14 14 14 13 13 13 14 14 15 15 15 14 14 13 12 11
17 15 14 13 13 14 15 16 17 18 18 18 17 17 17 16 16 16 15 15 16 16 17 17 17 17 17 17 17 17 17 16 16 15 16 16 16 16 16 14 12 13 15 16 16 16 17 18 19 20 19 17 14 14 14 15 15 15 15 16 16 16 16 16 15 15 14 14 13
17 16 15 14 14 14 15 16 17 17 18 17 17 17 17 16 15 15 15 16 17 18 18 17 17 17 17 17 16 16 16 16 15 15 15 15 16 16 16 15 14 15 17 17 16 16 16 16 17 18 17 15 13 12 13 13 13 15 16 17 17 17 17 16 15 15 14 13 13
17 16 16 15 14 14 15 16 17 17 17 17 17 16 16 16 15 14 14 16 18 18 18 17 17 17 17 17 16 15 15 15 15 15 14 14 15 15 16 15 15 16 16 17 17 17 16 16 16 16 15 14 12 12 12 11 11 13 15 16 16 16 15 14 15 15 15 15 14
16 16 15 15 14 14 15 16 17 17 17 17 16 16 15 15 14 14 14 15 17 18 18 17 17 17 17 17 17 16 16 15 15 15 15 15 15 15 16 16 15 15 15 17 18 17 17 16 16 15 14 13 12 12 11 11 11 12 13 13 14 14 14 12 12 14 16 18 18
16 15 15 15 15 15 16 16 17 17 17 16 16 16 15 15 14 14 14 16 17 18 18 18 17 17 17 17 17 17 17 16 16 16 15 15 15 15 16 16 15 15 15 17 18 18 17 17 16 15 14 12 12 11 11 11 12 12 12 12 12 13 13 12 12 12 15 19 22
15 15 15 15 15 16 16 17 16 16 16 16 16 16 16 16 15 15 15 15 17 17 17 17 17 17 16 16 17 17 17 17 16 16 16 15 15 16 16 16 16 16 16 17 18 18 17 16 16 15 13 11 11 10 10 10 12 12 12 11 11 11 12 12 11 12 13 16 19
15 15 15 16 16 16 17 17 17 16 16 16 16 16 15 15 15 15 15 15 16 16 15 15 16 16 16 15 16 17 18 18 17 16 16 16 16 16 16 15 16 16 16 17 18 18 17 17 16 15 13 11 10 10 9 10 12 13 13 11 11 11 11 11 11 11 12 13 14
Wind_Direction
159 158 156 153 156 162 171 179 180 187 193 199 188 175 160 150 152 155 157 159 158 158 160 163 165 164 163 162 163 164 164 165 163 163 163 164 164 164 165 165 166 169 171 174 178 182 186 187 185 185 187 189 190 189 189 188 187 189 192 195 197 196 196 198 201 202 202 200 196
161 159 157 154 156 161 169 176 185 191 194 196 183 168 152 147 151 154 159 163 162 160 158 159 161 163 164 164 163 163 162 163 163 162 162 162 162 162 163 164 166 169 171 173 178 181 184 187 184 184 186 189 191 192 192 192 188 188 190 195 197 197 196 197 201 203 204 204 200
160 160 159 158 158 160 166 177 191 195 194 190 175 158 147 148 151 155 159 164 163 160 158 156 159 161 163 165 165 164 164 165 164 163 162 162 160 161 162 163 166 168 170 173 177 181 184 187 185 184 184 187 189 192 194 195 189 187 190 195 197 197 197 197 199 200 202 206 203
158 159 161 162 161 162 167 180 192 195 192 182 160 147 145 149 151 154 158 161 161 160 160 158 158 160 162 165 167 168 168 168 168 166 164 162 160 161 162 163 166 168 169 172 176 181 184 187 186 186 185 186 189 192 193 195 190 189 190 195 197 198 197 197 196 197 199 203 204
158 158 160 162 162 162 168 182 192 195 190 169 149 144 146 149 151 153 156 159 161 162 162 160 159 159 161 163 167 169 171 171 171 170 168 164 161 161 163 165 166 167 169 171 175 179 184 187 188 189 189 187 189 192 194 194 191 190 191 193 197 198 199 197 196 195 196 199 202
158 156 156 157 159 160 167 183 194 196 188 157 148 147 149 151 153 155 158 160 160 159 159 158 159 159 159 161 165 169 171 173 174 173 172 167 163 162 163 166 167 167 168 171 174 178 182 186 188 191 192 190 190 193 196 195 194 192 191 193 197 198 199 198 196 194 194 195 199
158 155 153 152 156 160 168 179 193 197 188 156 151 151 152 154 155 157 158 159 157 156 155 156 159 160 160 161 164 167 170 173 174 175 174 171 165 163 163 166 166 167 168 171 173 177 181 185 188 191 191 190 190 193 196 197 196 195 194 195 198 199 201 202 198 194 192 193 196
157 155 152 149 152 161 169 177 190 195 190 163 155 153 153 154 156 157 158 158 157 156 156 156 160 161 162 163 164 166 167 171 173 175 175 174 169 165 163 163 165 166 168 170 173 177 180 184 189 191 190 188 190 192 194 196 199 200 200 199 199 200 203 208 202 193 190 192 192
156 154 152 149 150 159 169 180 190 194 190 167 157 154 154 154 155 157 158 159 158 156 156 157 160 162 163 165 166 166 167 169 171 173 175 176 174 169 165 162 163 165 167 169 174 177 179 183 190 194 193 189 190 192 193 195 200 204 207 205 204 202 202 206 200 194 189 189 189
155 153 151 151 152 157 167 181 191 194 188 165 156 153 153 153 156 158 160 159 157 156 156 158 160 161 163 166 167 167 168 169 171 172 174 177 177 173 168 164 164 164 165 167 172 176 178 181 189 194 197 195 194 193 194 195 201 207 211 211 208 205 203 202 199 196 192 191 191
151 150 150 152 157 160 170 186 195 195 186 161 154 152 152 153 156 158 158 156 155 155 157 159 159 160 162 165 167 168 169 170 171 172 173 175 177 175 172 168 167 165 164 166 170 173 177 180 188 193 197 201 199 198 198 199 203 208 213 216 213 210 208 207 203 200 199 199 198
148 148 149 151 159 168 181 193 198 194 180 156 151 150 151 154 156 155 154 154 154 155 157 158 158 158 159 162 163 165 166 168 169 170 170 173 175 175 175 173 172 170 168 166 168 171 175 180 186 191 195 199 200 201 202 203 206 210 214 216 217 216 214 212 208 205 202 202 204
147 149 151 153 164 175 188 197 198 189 171 153 150 150 151 153 153 152 151 153 153 154 154 156 156 156 156 157 158 159 161 163 165 166 168 171 173 175 177 177 178 176 174 171 170 172 176 179 184 188 192 196 199 201 203 205 207 210 213 216 217 219 219 216 213 208 205 203 207
149 153 157 159 171 182 191 195 194 181 162 150 149 149 150 150 149 148 149 151 150 150 150 151 152 154 154 153 153 154 155 158 160 163 166 169 173 175 178 179 180 180 179 178 176 177 180 182 184 187 191 195 198 201 203 206 209 211 213 214 216 218 219 218 214 210 207 205 207
152 158 162 166 176 185 190 192 187 171 155 150 149 149 149 147 146 145 146 147 147 147 147 148 150 151 152 151 150 151 153 156 158 160 163 167 171 174 176 177 179 179 181 182 183 184 187 189 190 191 194 197 199 201 203 206 209 211 213 214 216 217 218 217 214 212 209 207 208
152 158 164 170 178 185 188 188 175 160 151 150 149 149 147 145 143 142 142 143 143 144 145 146 148 149 150 149 149 150 152 155 156 158 161 164 168 171 173 174 175 176 179 182 186 190 194 197 198 199 200 202 203 204 205 206 209 211 213 214 216 217 217 217 215 213 212 210 209
151 159 166 172 179 185 186 178 162 152 149 149 148 148 146 144 141 139 138 139 139 140 141 143 145 147 147 146 147 148 151 154 154 156 158 161 165 168 171 173 174 175 177 181 185 191 196 201 203 205 205 206 207 208 208 209 209 209 210 212 214 216 217 217 215 215 214 213 213
158 164 169 174 181 183 179 163 151 147 147 147 147 146 144 141 138 136 134 133 132 133 135 137 140 142 142 142 143 145 148 151 152 153 155 158 163 167 170 173 175 178 181 184 186 189 193 198 201 204 207 208 210 211 211 211 211 210 209 210 212 214 215 216 215 215 215 216 216
165 167 171 177 182 178 167 152 146 145 145 145 144 142 140 137 136 133 130 128 126 127 129 130 133 135 136 137 138 139 142 147 147 148 149 152 157 163 168 173 178 183 188 192 191 190 190 192 195 199 203 207 210 211 212 212 212 211 211 210 211 212 213 214 214 215 215 216 217
167 167 171 180 179 169 157 149 145 144 144 143 140 138 135 134 133 130 127 125 124 124 124 125 126 128 130 131 132 133 135 139 141 142 143 144 150 156 164 172 179 186 193 198 199 197 194 193 194 196 198 202 207 209 211 211 212 212 211 211 211 212 213 213 213 213 214 215 216
169 167 170 176 169 162 156 150 145 142 141 139 136 134 133 132 130 128 126 124 123 122 121 121 122 123 125 126 127 128 129 130 135 137 139 141 146 153 162 171 179 186 193 200 205 207 206 202 199 198 198 199 203 205 206 208 209 210 211 211 212 213 213 213 213 213 213 213 213
171 169 170 174 165 160 156 150 143 139 137 134 132 131 130 130 128 127 125 124 122 121 120 119 120 120 122 123 124 125 124 125 130 135 138 142 148 154 161 170 180 188 196 202 208 212 214 213 209 205 202 200 201 202 203 205 208 210 212 213 214 215 215 215 214 214 214 213 212
171 173 177 185 170 161 155 147 139 134 131 128 128 127 127 127 126 125 126 127 125 122 120 118 119 119 120 121 121 122 123 124 130 134 139 144 150 156 161 170 182 190 197 202 206 209 213 215 214 211 207 204 201 201 202 204 208 211 213 215 216 216 216 216 215 215 214 213 211
177 178 179 185 176 166 156 142 133 129 126 124 123 123 123 123 124 125 126 127 126 123 121 120 121 123 125 126 129 131 135 139 144 149 154 158 162 166 169 174 182 188 193 195 207 222 226 226 220 215 210 207 208 211 216 220 221 221 219 217 216 216 216 216 215 215 214 214 212
178 179 179 183 184 171 154 135 127 124 123 122 121 121 122 124 125 125 124 124 124 125 125 126 128 130 132 132 132 131 131 132 135 139 143 143 137 138 150 170 175 141 46 46 30 15 340 284 252 235 225 223 229 236 242 243 242 239 237 233 231 230 231 230 228 226 225 223 222
173 177 180 185 191 180 148 125 122 121 121 121 122 123 125 127 126 125 123 123 123 121 118 114 111 107 102 96 87 80 75 70 68 66 64 60 53 48 44 41 41 39 31 11 358 354 351 330 280 258 252 251 251 249 248 245 245 245 247 248 248 247 245 244 242 240 240 242 240
171 174 174 177 187 180 137 115 118 121 123 124 126 127 128 130 130 128 125 119 111 102 94 88 85 82 79 78 75 72 70 68 66 65 64 63 59 54 49 44 40 34 17 347 333 325 316 253 197 198 224 247 256 260 262 260 257 254 253 253 253 251 248 245 245 246 248 255 64
188 191 177 166 170 160 130 114 120 124 127 128 129 130 130 130 126 120 110 100 95 90 87 84 82 80 79 76 74 73 71 70 68 67 65 64 60 55 49 42 36 23 5 346 337 339 40 90 112 109 101 79 69 51 46 37 29 21 9 350 330 309 289 261 223 138 100 85 77
179 195 190 171 152 140 134 132 131 127 123 121 121 119 116 110 103 96 91 88 87 86 86 84 81 78 77 75 73 71 70 68 68 67 66 64 61 57 51 44 36 22 11 7 30 58 71 72 79 80 79 73 70 65 60 55 50 47 43 39 35 31 32 42 63 81 93 96 91
156 181 184 172 151 140 136 135 120 105 95 93 91 90 88 86 84 83 83 82 81 81 82 82 81 79 77 76 74 72 70 69 68 68 67 65 62 58 53 47 40 30 24 27 47 60 65 65 67 70 73 75 75 72 68 66 65 62 58 53 50 50 52 56 64 73 82 88 89
141 162 171 164 145 124 106 100 90 84 81 81 80 80 80 80 80 80 81 81 81 81 81 81 80 79 77 76 74 73 71 70 68 67 67 67 65 61 56 50 44 36 33 36 51 61 66 68 68 69 71 73 74 73 71 69 66 64 60 57 56 56 57 60 62 67 72 79 86
127 139 146 133 110 88 78 80 80 80 80 81 80 80 80 80 80 80 81 82 83 82 81 80 80 79 78 76 75 73 72 70 69 68 68 68 67 64 59 53 46 39 37 41 54 63 69 72 72 72 72 72 73 72 71 69 67 64 62 59 58 57 58 60 63 66 70 75 81
105 104 96 81 74 73 74 78 79 80 80 80 80 80 81 81 81 81 81 81 81 81 81 81 80 80 80 79 77 76 74 72 71 70 70 69 69 66 62 56 49 41 39 45 56 64 69 74 75 75 74 72 73 71 70 68 67 64 61 59 56 56 56 57 59 62 65 68 73
91 88 82 74 72 73 76 79 80 81 81 80 80 81 82 82 82 82 82 82 81 81 80 80 80 81 80 80 80 78 77 74 73 72 72 72 71 69 66 61 53 43 42 49 57 64 69 74 76 77 77 75 74 72 70 69 67 65 63 61 58 55 54 54 54 55 57 59 63
91 89 84 78 75 75 77 80 82 82 82 82 82 82 82 83 83 84 85 85 85 83 82 81 81 80 80 79 78 78 78 77 76 75 75 76 76 74 71 66 57 47 45 50 56 62 67 72 76 78 79 78 77 75 73 71 69 67 65 63 60 57 55 54 53 53 54 56 60
92 91 87 82 80 79 81 83 84 84 84 84 85 84 84 84 85 86 88 88 87 85 83 82 81 80 79 78 77 77 77 79 79 79 78 78 78 77 74 68 59 50 47 49 54 59 63 68 74 78 80 82 81 79 76 74 71 69 67 65 62 59 56 55 54 53 54 55 59
90 90 89 87 86 85 85 86 86 86 86 86 86 87 87 87 86 86 87 87 86 85 83 81 80 79 79 79 78 77 77 78 79 79 78 77 77 77 75 70 62 54 49 49 53 57 60 64 70 76 81 85 85 83 80 78 75 72 70 68 65 61 59 57 56 55 54 54 57
88 90 91 91 90 89 88 87 87 88 88 88 88 88 87 87 86 84 84 85 86 86 84 82 81 81 81 82 80 78 76 75 76 76 76 74 75 75 75 71 64 57 52 50 54 57 60 63 67 73 80 86 87 86 85 83 80 77 74 72 68 64 61 60 58 57 56 55 56
89 90 92 93 92 91 89 87 87 88 89 90 89 87 86 85 84 83 82 83 86 87 87 85 84 84 84 84 82 79 75 72 71 71 72 71 71 71 72 72 66 60 54 52 55 58 61 64 67 72 78 85 87 88 88 88 85 82 80 77 73 68 63 61 60 58 57 56 56
90 91 92 92 92 91 89 88 88 88 89 89 88 87 86 85 85 84 84 84 85 86 87 87 87 86 85 84 83 80 76 71 68 68 68 68 67 67 68 69 66 61 56 53 55 58 61 64 68 72 77 83 86 89 90 90 88 86 82 79 77 73 68 64 61 60 58 56 55
90 90 90 90 90 90 89 89 88 87 86 86 86 86 86 86 87 87 86 86 86 86 87 87 87 86 85 83 82 80 77 73 68 66 65 65 64 63 64 65 63 60 56 53 55 57 60 63 67 71 76 83 86 88 90 92 90 88 85 82 80 78 75 70 65 62 59 57 56